map of SKG home
Great Circle Mapper logo
SKG - Airport
Location
City:  Thessaloniki, Greece
Near (Alt.):Saloniki
Name:Makedonia
ICAO / IATA:LGTS / SKG

Details
Type:Airport (Aerodrome, Airfield)
Use:Public/Civil, International (customs port of entry)
Latitude:4031'11"N (40.519725)
Longitude:2258'15"E (22.970950)
Datum:WGS 1984
Elevation:22 ft (7 m)
Variation:4.36E (WMM2015 magnetic declination)
0.10 annual change
Runways:2
Longest:8005 × 164 ft (2440 × 50 m), paved

Time
Time Zone:UTC+2 (DST+3)
Local Time:

Weather
METAR:LGTS 222150Z VRB02KT 9999 FEW040 BKN060 20/15 Q1011 NOSIG
TAF:LGTS 221700Z 2218/2318 16008KT 9999 FEW030
BECMG 2218/2220 14004KT PROB30
TEMPO 2308/2316 7000 SHRA FEW020CB BKN025

Related Locations
Nearby:
Farthest:CHT: 11420 mi / 18379 km
Waitangi [Tuuta], Chatham Islands, NZ

Find:

   beyond  
but within

Other Information
Maps:
NOTAMs:
Links:
Sources:

  
flag of Greece   

Airport Diagram

Airport diagram for SKG

Airport diagram (OBSOLETE) from NGA

Sectional Chart

Flight Planning
at skyvector.com

Satellite Image

Google Maps Satellite View

 

Copyright © 2004-2015 Karl L. Swartz. All rights reserved.
The Great Circle Mapper name and logo are trademarks of the Great Circle Mapper.
All other trademarks mentioned herein belong to their respective owners.
Please see credits for attibutions and further copyright information.

  Follow gcmap on Facebook Follow gcmap on Twitter Follow gcmap on Google+

hCard Microformat

Geo Microformat